Location: Newark
(7.0858°N, 171.3717°E)
Time: 20:24:08
(UTC+00:00)

Tiros 1 - Pass Details

Date: 27 November 2020
Orbit: 630 x 663 km, 48.4° (Epoch: 18 January)

Event Time Altitude Azimuth Distance (km) Brightness Sun altitude
Rises 02:46:09 0° 243° (WSW) 2,978 11.3 44.8°
Reaches altitude 10° 02:48:51 10° 257° (WSW) 2,068 10.6 44.2°
Maximum altitude 02:52:44 25° 311° (NW) 1,337 9.2 43.5°
Drops below altitude 10° 02:56:38 10° 6° (N) 2,069 9.5 42.7°
Sets 02:59:21 0° 20° (NNE) 2,978 10.2 42.2°
